Time,TemperatureF,DewpointF,PressureIn,WindDirection,WindDirectionDegrees,WindSpeedMPH,WindSpeedGustMPH,Humidity,HourlyPrecipIn,Conditions,Clouds,dailyrainin,SoftwareType,DateUTC
2013-04-26 00:01:00,51.9,46.3,29.61,NE,47,0.0,0.0,81,0.00,CLR,,0.00,WeatherDisplay:10.37,2013-04-26 04:01:00,
2013-04-26 00:02:00,51.9,46.3,29.61,NE,47,0.0,0.0,81,0.00,CLR,,0.00,WeatherDisplay:10.37,2013-04-26 04:02:00,
2013-04-26 00:07:00,52.0,47.0,29.61,NE,47,0.0,0.0,83,0.00,CLR,,0.00,WeatherDisplay:10.37,2013-04-26 04:07:00,
2013-04-26 00:12:00,52.2,47.2,29.62,NE,47,0.0,0.0,83,0.00,CLR,,0.00,WeatherDisplay:10.37,2013-04-26 04:12:00,
2013-04-26 00:17:00,52.0,47.0,29.62,NE,47,0.0,0.0,83,0.00,CLR,,0.00,WeatherDisplay:10.37,2013-04-26 04:17:00,
2013-04-26 00:22:00,51.9,46.9,29.62,NE,47,0.0,0.0,83,0.00,CLR,,0.00,WeatherDisplay:10.37,2013-04-26 04:22:00,
2013-04-26 00:27:00,51.9,47.2,29.62,ENE,64,0.0,0.0,84,0.00,CLR,,0.00,WeatherDisplay:10.37,2013-04-26 04:27:00,
2013-04-26 00:32:00,51.9,47.2,29.62,ENE,64,0.0,0.0,84,0.00,CLR,,0.00,WeatherDisplay:10.37,2013-04-26 04:32:00,
2013-04-26 00:37:00,51.6,46.9,29.62,ENE,64,0.0,0.0,84,0.00,CLR,,0.00,WeatherDisplay:10.37,2013-04-26 04:37:00,
2013-04-26 00:42:00,51.4,47.0,29.62,ENE,64,0.0,0.0,85,0.00,CLR,,0.00,WeatherDisplay:10.37,2013-04-26 04:42:00,
2013-04-26 00:47:00,51.4,47.4,29.62,ENE,65,0.0,0.0,86,0.00,CLR,,0.00,WeatherDisplay:10.37,2013-04-26 04:47:00,
2013-04-26 00:52:00,51.3,47.3,29.62,ENE,65,0.0,0.0,86,0.00,CLR,,0.00,WeatherDisplay:10.37,2013-04-26 04:52:00,
2013-04-26 00:57:00,51.3,47.6,29.63,ENE,65,0.0,0.0,87,0.00,CLR,,0.00,WeatherDisplay:10.37,2013-04-26 04:57:00,
2013-04-26 01:02:00,51.3,47.9,29.63,ENE,65,0.0,0.0,88,0.00,CLR,,0.00,WeatherDisplay:10.37,2013-04-26 05:02:00,
2013-04-26 01:07:00,51.3,47.9,29.63,ENE,65,0.0,0.0,88,0.00,CLR,,0.00,WeatherDisplay:10.37,2013-04-26 05:07:00,
2013-04-26 01:12:00,51.3,47.9,29.63,ENE,65,0.0,0.0,88,0.00,CLR,,0.00,WeatherDisplay:10.37,2013-04-26 05:12:00,
2013-04-26 01:17:00,51.3,48.2,29.63,ENE,65,0.0,0.0,89,0.00,CLR,,0.00,WeatherDisplay:10.37,2013-04-26 05:17:00,
2013-04-26 01:22:00,51.1,48.0,29.63,ENE,65,0.0,0.0,89,0.00,CLR,,0.00,WeatherDisplay:10.37,2013-04-26 05:22:00,
2013-04-26 01:27:00,50.8,47.7,29.63,ENE,65,0.0,0.0,89,0.00,CLR,,0.00,WeatherDisplay:10.37,2013-04-26 05:27:00,
2013-04-26 01:32:00,50.7,47.6,29.63,ENE,65,0.0,0.0,89,0.00,CLR,,0.00,WeatherDisplay:10.37,2013-04-26 05:32:00,
2013-04-26 01:37:00,50.4,47.3,29.63,ENE,65,0.0,0.0,89,0.00,CLR,,0.00,WeatherDisplay:10.37,2013-04-26 05:37:00,
2013-04-26 01:42:00,50.4,47.6,29.63,ENE,65,0.0,0.0,90,0.00,CLR,,0.00,WeatherDisplay:10.37,2013-04-26 05:42:00,
2013-04-26 01:47:00,50.2,47.4,29.63,ENE,65,0.0,0.0,90,0.00,CLR,,0.00,WeatherDisplay:10.37,2013-04-26 05:47:00,
2013-04-26 01:52:00,50.4,47.9,29.63,ENE,65,0.0,0.0,91,0.00,CLR,,0.00,WeatherDisplay:10.37,2013-04-26 05:52:00,
2013-04-26 01:57:00,50.4,47.9,29.63,ENE,65,0.0,0.0,91,0.00,CLR,,0.00,WeatherDisplay:10.37,2013-04-26 05:57:00,
2013-04-26 02:02:00,50.4,47.9,29.63,ENE,65,0.0,0.0,91,0.00,CLR,,0.00,WeatherDisplay:10.37,2013-04-26 06:02:00,
2013-04-26 02:07:00,50.5,48.3,29.63,ENE,65,0.0,0.0,92,0.00,CLR,,0.00,WeatherDisplay:10.37,2013-04-26 06:07:00,
2013-04-26 02:12:00,50.4,48.2,29.63,ENE,65,0.0,0.0,92,0.00,CLR,,0.00,WeatherDisplay:10.37,2013-04-26 06:12:00,
2013-04-26 02:17:00,50.4,48.2,29.63,ENE,65,0.0,0.0,92,0.00,CLR,,0.00,WeatherDisplay:10.37,2013-04-26 06:17:00,
2013-04-26 02:22:00,50.2,48.0,29.63,ENE,65,0.0,0.0,92,0.00,CLR,,0.00,WeatherDisplay:10.37,2013-04-26 06:22:00,
2013-04-26 02:27:00,50.2,48.0,29.64,ENE,65,0.0,0.0,92,0.00,CLR,,0.00,WeatherDisplay:10.37,2013-04-26 06:27:00,
2013-04-26 02:32:00,50.1,47.9,29.64,ENE,65,0.0,0.0,92,0.00,CLR,,0.00,WeatherDisplay:10.37,2013-04-26 06:32:00,
2013-04-26 02:37:00,49.9,47.7,29.64,ENE,65,0.0,0.0,92,0.00,CLR,,0.00,WeatherDisplay:10.37,2013-04-26 06:37:00,
2013-04-26 02:42:00,49.6,47.4,29.64,ENE,65,0.0,0.0,92,0.00,CLR,,0.00,WeatherDisplay:10.37,2013-04-26 06:42:00,
2013-04-26 02:47:00,49.5,47.3,29.64,ENE,65,0.0,0.0,92,0.00,CLR,,0.00,WeatherDisplay:10.37,2013-04-26 06:47:00,
2013-04-26 02:52:00,49.4,47.2,29.64,ENE,65,0.0,0.0,92,0.00,CLR,,0.00,WeatherDisplay:10.37,2013-04-26 06:52:00,
2013-04-26 02:57:00,49.2,47.0,29.63,ENE,65,0.0,0.0,92,0.00,CLR,,0.00,WeatherDisplay:10.37,2013-04-26 06:57:00,
2013-04-26 03:02:00,49.2,47.3,29.63,NE,35,0.0,0.0,93,0.00,CLR,,0.00,WeatherDisplay:10.37,2013-04-26 07:02:00,
2013-04-26 03:07:00,49.2,47.3,29.63,NE,35,0.0,0.0,93,0.00,CLR,,0.00,WeatherDisplay:10.37,2013-04-26 07:07:00,
2013-04-26 03:12:00,48.9,47.0,29.64,NE,35,0.0,0.0,93,0.00,CLR,,0.00,WeatherDisplay:10.37,2013-04-26 07:12:00,
2013-04-26 03:17:00,48.9,47.0,29.64,NE,35,3.5,3.5,93,0.00,CLR,,0.00,WeatherDisplay:10.37,2013-04-26 07:17:00,
2013-04-26 03:22:00,48.8,46.9,29.64,NE,35,0.0,0.0,93,0.00,CLR,,0.00,WeatherDisplay:10.37,2013-04-26 07:22:00,
2013-04-26 03:27:00,48.6,46.7,29.65,North,359,5.8,5.8,93,0.00,CLR,,0.00,WeatherDisplay:10.37,2013-04-26 07:27:00,
2013-04-26 03:32:00,48.5,46.6,29.65,North,0,0.0,0.0,93,0.00,CLR,,0.00,WeatherDisplay:10.37,2013-04-26 07:32:00,
2013-04-26 03:37:00,48.2,46.3,29.65,North,4,0.0,0.0,93,0.00,CLR,,0.00,WeatherDisplay:10.37,2013-04-26 07:37:00,
2013-04-26 03:42:00,48.0,46.1,29.65,North,4,3.5,3.5,93,0.00,CLR,,0.00,WeatherDisplay:10.37,2013-04-26 07:42:00,
2013-04-26 03:47:00,47.7,45.8,29.65,North,4,0.0,0.0,93,0.00,CLR,,0.00,WeatherDisplay:10.37,2013-04-26 07:47:00,
2013-04-26 03:52:00,47.6,46.0,29.65,North,4,0.0,0.0,94,0.00,CLR,,0.00,WeatherDisplay:10.37,2013-04-26 07:52:00,
2013-04-26 03:57:00,47.6,46.0,29.65,North,4,0.0,0.0,94,0.00,CLR,,0.00,WeatherDisplay:10.37,2013-04-26 07:57:00,
2013-04-26 04:02:00,47.6,46.0,29.65,North,4,0.0,0.0,94,0.00,CLR,,0.00,WeatherDisplay:10.37,2013-04-26 08:02:00,
2013-04-26 04:07:00,47.6,46.0,29.65,North,4,0.0,0.0,94,0.00,CLR,,0.00,WeatherDisplay:10.37,2013-04-26 08:07:00,
2013-04-26 04:12:00,47.7,46.1,29.65,North,4,0.0,0.0,94,0.00,CLR,,0.00,WeatherDisplay:10.37,2013-04-26 08:12:00,
2013-04-26 04:17:00,47.9,46.5,29.65,North,4,0.0,0.0,95,0.00,CLR,,0.00,WeatherDisplay:10.37,2013-04-26 08:17:00,
2013-04-26 04:22:00,48.0,46.6,29.65,North,4,0.0,0.0,95,0.00,CLR,,0.00,WeatherDisplay:10.37,2013-04-26 08:22:00,
2013-04-26 04:27:00,48.0,46.6,29.65,North,4,0.0,0.0,95,0.00,CLR,,0.00,WeatherDisplay:10.37,2013-04-26 08:27:00,
2013-04-26 04:32:00,48.0,46.6,29.65,North,4,0.0,0.0,95,0.00,CLR,,0.00,WeatherDisplay:10.37,2013-04-26 08:32:00,
2013-04-26 04:37:00,48.0,46.6,29.65,North,4,0.0,0.0,95,0.00,CLR,,0.00,WeatherDisplay:10.37,2013-04-26 08:37:00,
2013-04-26 04:42:00,47.7,46.1,29.66,North,4,0.0,0.0,94,0.00,CLR,,0.00,WeatherDisplay:10.37,2013-04-26 08:42:00,
2013-04-26 04:47:00,47.4,46.0,29.66,North,4,0.0,0.0,95,0.00,CLR,,0.00,WeatherDisplay:10.37,2013-04-26 08:47:00,
2013-04-26 04:52:00,47.3,45.7,29.66,North,4,0.0,0.0,94,0.00,CLR,,0.00,WeatherDisplay:10.37,2013-04-26 08:52:00,
2013-04-26 04:57:00,47.1,45.5,29.66,North,4,0.0,0.0,94,0.00,CLR,,0.00,WeatherDisplay:10.37,2013-04-26 08:57:00,
2013-04-26 05:02:00,47.0,45.6,29.66,North,4,0.0,0.0,95,0.00,CLR,,0.00,WeatherDisplay:10.37,2013-04-26 09:02:00,
2013-04-26 05:07:00,46.8,45.4,29.66,North,4,0.0,0.0,95,0.00,CLR,,0.00,WeatherDisplay:10.37,2013-04-26 09:07:00,
2013-04-26 05:12:00,46.8,45.4,29.66,North,4,0.0,0.0,95,0.00,CLR,,0.00,WeatherDisplay:10.37,2013-04-26 09:12:00,
2013-04-26 05:17:00,46.8,45.4,29.66,North,4,0.0,0.0,95,0.00,CLR,,0.00,WeatherDisplay:10.37,2013-04-26 09:17:00,
2013-04-26 05:22:00,47.0,45.9,29.66,North,4,0.0,0.0,96,0.00,CLR,,0.00,WeatherDisplay:10.37,2013-04-26 09:22:00,
2013-04-26 05:27:00,47.1,46.0,29.66,North,4,0.0,0.0,96,0.00,CLR,,0.00,WeatherDisplay:10.37,2013-04-26 09:27:00,
2013-04-26 05:32:00,47.3,46.2,29.66,North,4,0.0,0.0,96,0.00,CLR,,0.00,WeatherDisplay:10.37,2013-04-26 09:32:00,
2013-04-26 05:37:00,47.1,46.0,29.66,North,4,0.0,0.0,96,0.00,CLR,,0.00,WeatherDisplay:10.37,2013-04-26 09:37:00,
2013-04-26 05:42:00,47.1,46.0,29.67,North,4,0.0,0.0,96,0.00,CLR,,0.00,WeatherDisplay:10.37,2013-04-26 09:42:00,
2013-04-26 05:47:00,47.0,45.9,29.67,North,4,0.0,0.0,96,0.00,CLR,,0.00,WeatherDisplay:10.37,2013-04-26 09:47:00,
2013-04-26 05:52:00,47.0,45.9,29.67,North,4,0.0,0.0,96,0.00,CLR,,0.00,WeatherDisplay:10.37,2013-04-26 09:52:00,
2013-04-26 05:57:00,46.8,45.7,29.67,North,4,0.0,0.0,96,0.00,CLR,,0.00,WeatherDisplay:10.37,2013-04-26 09:57:00,
2013-04-26 06:02:00,46.8,45.7,29.67,North,4,0.0,0.0,96,0.00,CLR,,0.00,WeatherDisplay:10.37,2013-04-26 10:02:00,
2013-04-26 06:07:00,46.7,45.6,29.67,North,4,0.0,0.0,96,0.00,CLR,,0.00,WeatherDisplay:10.37,2013-04-26 10:07:00,
2013-04-26 06:12:00,46.5,45.4,29.68,North,4,0.0,0.0,96,0.00,CLR,,0.00,WeatherDisplay:10.37,2013-04-26 10:12:00,
2013-04-26 06:17:00,46.5,45.4,29.68,North,4,0.0,0.0,96,0.00,CLR,,0.00,WeatherDisplay:10.37,2013-04-26 10:17:00,
2013-04-26 06:22:00,46.7,45.6,29.68,North,4,0.0,0.0,96,0.00,CLR,,0.00,WeatherDisplay:10.37,2013-04-26 10:22:00,
2013-04-26 06:27:00,46.7,45.6,29.68,North,4,0.0,0.0,96,0.00,CLR,,0.00,WeatherDisplay:10.37,2013-04-26 10:27:00,
2013-04-26 06:32:00,46.5,45.4,29.68,North,4,0.0,0.0,96,0.00,CLR,,0.00,WeatherDisplay:10.37,2013-04-26 10:32:00,
2013-04-26 06:37:00,46.4,45.3,29.68,North,4,0.0,0.0,96,0.00,CLR,,0.00,WeatherDisplay:10.37,2013-04-26 10:37:00,
2013-04-26 06:42:00,46.1,45.0,29.69,North,4,0.0,0.6,96,0.00,CLR,,0.00,WeatherDisplay:10.37,2013-04-26 10:42:00,
2013-04-26 06:47:00,46.0,44.9,29.69,North,4,0.0,0.0,96,0.00,CLR,,0.00,WeatherDisplay:10.37,2013-04-26 10:47:00,
2013-04-26 06:52:00,46.0,44.9,29.69,North,4,0.0,0.0,96,0.00,CLR,,0.00,WeatherDisplay:10.37,2013-04-26 10:52:00,
2013-04-26 06:57:00,46.0,44.9,29.70,North,4,0.0,0.5,96,0.00,CLR,,0.00,WeatherDisplay:10.37,2013-04-26 10:57:00,
2013-04-26 07:02:00,46.1,45.0,29.70,North,4,0.0,0.0,96,0.00,CLR,,0.00,WeatherDisplay:10.37,2013-04-26 11:02:00,
2013-04-26 07:07:00,46.1,45.0,29.70,North,8,0.0,0.0,96,0.00,CLR,,0.00,WeatherDisplay:10.37,2013-04-26 11:07:00,
2013-04-26 07:12:00,46.2,45.4,29.70,North,8,0.0,0.0,97,0.00,CLR,,0.00,WeatherDisplay:10.37,2013-04-26 11:12:00,
2013-04-26 07:17:00,46.4,45.6,29.70,North,8,0.0,0.0,97,0.00,CLR,,0.00,WeatherDisplay:10.37,2013-04-26 11:17:00,
2013-04-26 07:22:00,46.5,45.7,29.70,North,8,0.0,0.2,97,0.00,CLR,,0.00,WeatherDisplay:10.37,2013-04-26 11:22:00,
2013-04-26 07:27:00,46.8,46.0,29.71,North,8,0.0,0.5,97,0.00,CLR,,0.00,WeatherDisplay:10.37,2013-04-26 11:27:00,
2013-04-26 07:32:00,47.0,46.2,29.71,NNE,20,0.0,0.0,97,0.00,CLR,,0.00,WeatherDisplay:10.37,2013-04-26 11:32:00,
2013-04-26 07:37:00,47.3,46.5,29.71,NNE,20,0.0,0.1,97,0.00,CLR,,0.00,WeatherDisplay:10.37,2013-04-26 11:37:00,
2013-04-26 07:42:00,47.7,46.9,29.72,NNE,21,0.0,0.0,97,0.00,CLR,,0.00,WeatherDisplay:10.37,2013-04-26 11:42:00,
2013-04-26 07:47:00,48.2,47.7,29.72,NE,37,0.0,0.0,98,0.00,CLR,,0.00,WeatherDisplay:10.37,2013-04-26 11:47:00,
2013-04-26 07:52:00,48.3,47.5,29.72,NE,37,0.0,0.0,97,0.00,CLR,,0.00,WeatherDisplay:10.37,2013-04-26 11:52:00,
2013-04-26 07:57:00,48.6,47.8,29.72,NE,37,1.1,0.0,97,0.00,CLR,,0.00,WeatherDisplay:10.37,2013-04-26 11:57:00,
2013-04-26 08:02:00,48.6,47.8,29.72,NW,309,3.0,3.0,97,0.00,CLR,,0.00,WeatherDisplay:10.37,2013-04-26 12:02:00,
2013-04-26 08:07:00,48.8,47.7,29.72,North,7,1.0,1.6,96,0.00,CLR,,0.00,WeatherDisplay:10.37,2013-04-26 12:07:00,
2013-04-26 08:12:00,48.8,47.4,29.73,ENE,69,2.3,0.0,95,0.00,CLR,,0.00,WeatherDisplay:10.37,2013-04-26 12:12:00,
2013-04-26 08:17:00,48.8,46.9,29.73,NNE,27,2.3,2.3,93,0.00,CLR,,0.00,WeatherDisplay:10.37,2013-04-26 12:17:00,
2013-04-26 08:22:00,48.9,46.7,29.73,NE,41,3.5,3.5,92,0.00,CLR,,0.00,WeatherDisplay:10.37,2013-04-26 12:22:00,
2013-04-26 08:27:00,49.5,46.1,29.74,North,6,3.5,3.5,88,0.00,CLR,,0.00,WeatherDisplay:10.37,2013-04-26 12:27:00,
2013-04-26 08:32:00,49.9,45.6,29.74,NNE,27,3.5,3.5,85,0.00,CLR,,0.00,WeatherDisplay:10.37,2013-04-26 12:32:00,
2013-04-26 08:37:00,50.7,45.4,29.74,North,7,5.8,5.8,82,0.00,CLR,,0.00,WeatherDisplay:10.37,2013-04-26 12:37:00,
2013-04-26 08:42:00,51.3,44.3,29.74,NNW,343,5.8,5.8,77,0.00,CLR,,0.00,WeatherDisplay:10.37,2013-04-26 12:42:00,
2013-04-26 08:47:00,52.0,44.0,29.74,North,359,0.0,0.0,74,0.00,CLR,,0.00,WeatherDisplay:10.37,2013-04-26 12:47:00,
2013-04-26 08:52:00,53.1,44.3,29.74,NE,42,5.8,5.8,72,0.00,CLR,,0.00,WeatherDisplay:10.37,2013-04-26 12:52:00,
2013-04-26 08:57:00,53.6,44.4,29.75,North,359,2.3,2.3,71,0.00,CLR,,0.00,WeatherDisplay:10.37,2013-04-26 12:57:00,
2013-04-26 09:02:00,54.5,43.8,29.75,NE,41,2.0,2.0,67,0.00,CLR,,0.00,WeatherDisplay:10.37,2013-04-26 13:02:00,
2013-04-26 09:07:00,54.8,42.9,29.75,NNE,30,1.1,1.1,64,0.00,CLR,,0.00,WeatherDisplay:10.37,2013-04-26 13:07:00,
2013-04-26 09:12:00,55.6,44.0,29.75,ENE,58,0.0,0.0,65,0.00,CLR,,0.00,WeatherDisplay:10.37,2013-04-26 13:12:00,
2013-04-26 09:17:00,56.5,43.2,29.75,East,79,4.6,4.6,61,0.00,CLR,,0.00,WeatherDisplay:10.37,2013-04-26 13:17:00,
2013-04-26 09:22:00,57.2,43.4,29.75,ENE,76,4.6,4.6,60,0.00,CLR,,0.00,WeatherDisplay:10.37,2013-04-26 13:22:00,
2013-04-26 09:27:00,57.6,42.5,29.76,North,353,2.3,2.3,57,0.00,CLR,,0.00,WeatherDisplay:10.37,2013-04-26 13:27:00,
2013-04-26 09:32:00,58.1,42.5,29.76,ENE,65,4.6,4.6,56,0.00,CLR,,0.00,WeatherDisplay:10.37,2013-04-26 13:32:00,
2013-04-26 09:38:00,58.4,42.8,29.76,NNE,24,2.3,2.3,56,0.00,CLR,,0.00,WeatherDisplay:10.37,2013-04-26 13:38:00,
2013-04-26 09:43:00,58.7,41.1,29.76,NE,35,2.3,2.3,52,0.00,CLR,,0.00,WeatherDisplay:10.37,2013-04-26 13:43:00,
2013-04-26 09:48:00,59.2,42.1,29.76,NNE,31,3.5,3.5,53,0.00,CLR,,0.00,WeatherDisplay:10.37,2013-04-26 13:48:00,
2013-04-26 09:53:00,59.8,41.6,29.76,NNE,27,4.6,4.6,51,0.00,CLR,,0.00,WeatherDisplay:10.37,2013-04-26 13:53:00,
2013-04-26 09:58:00,60.2,41.0,29.76,North,7,8.1,8.1,49,0.00,CLR,,0.00,WeatherDisplay:10.37,2013-04-26 13:58:00,
2013-04-26 10:03:00,60.5,40.2,29.76,ENE,61,3.5,3.5,47,0.00,CLR,,0.00,WeatherDisplay:10.37,2013-04-26 14:03:00,
2013-04-26 10:08:00,60.7,38.6,29.76,ENE,68,6.9,6.9,44,0.00,CLR,,0.00,WeatherDisplay:10.37,2013-04-26 14:08:00,
2013-04-26 10:13:00,61.0,37.7,29.76,NNE,18,6.9,6.9,42,0.00,CLR,,0.00,WeatherDisplay:10.37,2013-04-26 14:13:00,
2013-04-26 10:18:00,61.5,36.9,29.76,ENE,59,3.5,3.5,40,0.00,CLR,,0.00,WeatherDisplay:10.37,2013-04-26 14:18:00,
2013-04-26 10:23:00,62.0,36.1,29.76,North,8,7.0,7.0,38,0.00,CLR,,0.00,WeatherDisplay:10.37,2013-04-26 14:23:00,
2013-04-26 10:28:00,62.4,35.1,29.76,NE,37,10.4,10.4,36,0.00,CLR,,0.00,WeatherDisplay:10.37,2013-04-26 14:28:00,
2013-04-26 10:33:00,62.7,34.6,29.76,North,8,5.8,5.8,35,0.00,CLR,,0.00,WeatherDisplay:10.37,2013-04-26 14:33:00,
2013-04-26 10:38:00,62.7,32.4,29.76,ENE,59,6.9,6.9,32,0.00,CLR,,0.00,WeatherDisplay:10.37,2013-04-26 14:38:00,
2013-04-26 10:43:00,62.9,32.6,29.76,North,0,9.2,9.2,32,0.00,CLR,,0.00,WeatherDisplay:10.37,2013-04-26 14:43:00,
2013-04-26 10:48:00,63.2,32.8,29.76,North,356,8.1,8.1,32,0.00,CLR,,0.00,WeatherDisplay:10.37,2013-04-26 14:48:00,
2013-04-26 10:53:00,63.5,33.9,29.76,ENE,71,6.9,6.9,33,0.00,CLR,,0.00,WeatherDisplay:10.37,2013-04-26 14:53:00,
2013-04-26 10:58:00,63.5,32.3,29.76,ENE,71,4.6,4.6,31,0.00,CLR,,0.00,WeatherDisplay:10.37,2013-04-26 14:58:00,
2013-04-26 11:03:00,63.9,33.4,29.76,NE,35,11.5,11.5,32,0.00,CLR,,0.00,WeatherDisplay:10.37,2013-04-26 15:03:00,
2013-04-26 11:08:00,63.9,31.0,29.76,ESE,102,3.5,3.5,29,0.00,CLR,,0.00,WeatherDisplay:10.37,2013-04-26 15:08:00,
2013-04-26 11:13:00,64.0,30.2,29.76,East,92,6.9,6.9,28,0.00,CLR,,0.00,WeatherDisplay:10.37,2013-04-26 15:13:00,
2013-04-26 11:18:00,64.0,31.9,29.76,ESE,109,4.6,4.6,30,0.00,CLR,,0.00,WeatherDisplay:10.37,2013-04-26 15:18:00,
2013-04-26 11:23:00,64.3,33.0,29.76,NE,37,8.1,8.1,31,0.00,CLR,,0.00,WeatherDisplay:10.37,2013-04-26 15:23:00,
2013-04-26 11:28:00,64.8,34.2,29.76,North,356,4.6,4.6,32,0.00,CLR,,0.00,WeatherDisplay:10.37,2013-04-26 15:28:00,
2013-04-26 11:33:00,65.5,31.5,29.76,East,80,4.6,4.6,28,0.00,CLR,,0.00,WeatherDisplay:10.37,2013-04-26 15:33:00,
2013-04-26 11:38:00,65.2,31.2,29.76,East,92,5.8,5.8,28,0.00,CLR,,0.00,WeatherDisplay:10.37,2013-04-26 15:38:00,
2013-04-26 11:43:00,64.7,31.7,29.76,NNE,25,10.0,10.0,29,0.00,CLR,,0.00,WeatherDisplay:10.37,2013-04-26 15:43:00,
2013-04-26 11:48:00,64.8,32.6,29.76,ENE,66,8.1,8.1,30,0.00,CLR,,0.00,WeatherDisplay:10.37,2013-04-26 15:48:00,
2013-04-26 11:53:00,65.0,31.1,29.76,ESE,109,4.6,4.6,28,0.00,CLR,,0.00,WeatherDisplay:10.37,2013-04-26 15:53:00,
2013-04-26 11:58:00,65.3,33.0,29.75,NNW,340,11.0,11.0,30,0.00,CLR,,0.00,WeatherDisplay:10.37,2013-04-26 15:58:00,
2013-04-26 12:03:00,65.5,31.5,29.75,East,99,6.9,6.9,28,0.00,CLR,,0.00,WeatherDisplay:10.37,2013-04-26 16:03:00,
2013-04-26 12:08:00,65.5,30.6,29.75,East,86,0.0,0.0,27,0.00,CLR,,0.00,WeatherDisplay:10.37,2013-04-26 16:08:00,
2013-04-26 12:13:00,65.6,31.6,29.74,NE,38,6.9,6.9,28,0.00,CLR,,0.00,WeatherDisplay:10.37,2013-04-26 16:13:00,
2013-04-26 12:18:00,65.6,30.7,29.74,NE,41,11.5,11.5,27,0.00,CLR,,0.00,WeatherDisplay:10.37,2013-04-26 16:18:00,
2013-04-26 12:23:00,65.8,31.8,29.74,North,353,5.8,5.8,28,0.00,CLR,,0.00,WeatherDisplay:10.37,2013-04-26 16:23:00,
2013-04-26 12:28:00,66.3,33.9,29.73,NE,45,5.8,5.8,30,0.00,CLR,,0.00,WeatherDisplay:10.37,2013-04-26 16:28:00,
2013-04-26 12:33:00,66.8,32.6,29.73,North,359,3.5,3.5,28,0.00,CLR,,0.00,WeatherDisplay:10.37,2013-04-26 16:33:00,
2013-04-26 12:38:00,66.9,32.7,29.73,NE,49,1.1,1.1,28,0.00,CLR,,0.00,WeatherDisplay:10.37,2013-04-26 16:38:00,
2013-04-26 12:43:00,67.1,34.6,29.73,East,96,1.1,1.1,30,0.00,CLR,,0.00,WeatherDisplay:10.37,2013-04-26 16:43:00,
2013-04-26 12:48:00,67.6,34.2,29.73,ENE,73,2.3,2.3,29,0.00,CLR,,0.00,WeatherDisplay:10.37,2013-04-26 16:48:00,
2013-04-26 12:53:00,67.4,33.1,29.73,NE,54,3.5,3.5,28,0.00,CLR,,0.00,WeatherDisplay:10.37,2013-04-26 16:53:00,
2013-04-26 12:58:00,67.1,32.9,29.73,NE,38,2.3,0.0,28,0.00,CLR,,0.00,WeatherDisplay:10.37,2013-04-26 16:58:00,
2013-04-26 13:03:00,67.1,32.9,29.73,NNE,28,1.1,1.1,28,0.00,CLR,,0.00,WeatherDisplay:10.37,2013-04-26 17:03:00,
2013-04-26 13:08:00,66.8,30.8,29.73,North,357,10.4,10.4,26,0.00,CLR,,0.00,WeatherDisplay:10.37,2013-04-26 17:08:00,
2013-04-26 13:13:00,66.4,32.3,29.72,WSW,254,1.1,1.1,28,0.00,CLR,,0.00,WeatherDisplay:10.37,2013-04-26 17:13:00,
2013-04-26 13:18:00,67.4,33.1,29.72,North,0,2.3,2.3,28,0.00,CLR,,0.00,WeatherDisplay:10.37,2013-04-26 17:18:00,
2013-04-26 13:23:00,67.6,35.0,29.72,East,99,1.1,0.0,30,0.00,CLR,,0.00,WeatherDisplay:10.37,2013-04-26 17:23:00,
2013-04-26 13:28:00,67.6,35.0,29.73,NW,305,0.0,0.0,30,0.00,CLR,,0.00,WeatherDisplay:10.37,2013-04-26 17:28:00,
2013-04-26 13:33:00,68.1,34.6,29.73,WSW,256,0.0,0.0,29,0.00,CLR,,0.00,WeatherDisplay:10.37,2013-04-26 17:33:00,
2013-04-26 13:38:00,68.4,33.1,29.73,WSW,256,0.0,0.0,27,0.00,CLR,,0.00,WeatherDisplay:10.37,2013-04-26 17:38:00,
2013-04-26 13:43:00,69.1,32.7,29.72,ESE,104,0.0,0.0,26,0.00,CLR,,0.00,WeatherDisplay:10.37,2013-04-26 17:43:00,
2013-04-26 13:48:00,68.8,33.4,29.72,North,0,4.0,4.0,27,0.00,CLR,,0.00,WeatherDisplay:10.37,2013-04-26 17:48:00,
2013-04-26 13:53:00,68.6,32.3,29.72,ESE,120,4.6,4.6,26,0.00,CLR,,0.00,WeatherDisplay:10.37,2013-04-26 17:53:00,
2013-04-26 13:58:00,68.3,33.0,29.72,NNE,28,5.0,5.0,27,0.00,CLR,,0.00,WeatherDisplay:10.37,2013-04-26 17:58:00,
2013-04-26 14:03:00,68.4,33.1,29.72,North,357,2.3,2.3,27,0.00,CLR,,0.00,WeatherDisplay:10.37,2013-04-26 18:03:00,
2013-04-26 14:08:00,68.4,32.1,29.72,North,352,0.0,0.0,26,0.00,CLR,,0.00,WeatherDisplay:10.37,2013-04-26 18:08:00,
2013-04-26 14:13:00,69.8,33.3,29.73,WSW,241,4.6,4.6,26,0.00,CLR,,0.00,WeatherDisplay:10.37,2013-04-26 18:13:00,
2013-04-26 14:18:00,69.4,33.0,29.73,WSW,253,1.0,1.0,26,0.00,CLR,,0.00,WeatherDisplay:10.37,2013-04-26 18:18:00,
2013-04-26 14:23:00,69.3,31.9,29.73,SSE,165,2.3,2.3,25,0.00,CLR,,0.00,WeatherDisplay:10.37,2013-04-26 18:23:00,
2013-04-26 14:28:00,69.1,32.7,29.72,North,0,3.5,3.5,26,0.00,CLR,,0.00,WeatherDisplay:10.37,2013-04-26 18:28:00,
2013-04-26 14:33:00,69.1,31.8,29.72,North,354,0.0,0.0,25,0.00,CLR,,0.00,WeatherDisplay:10.37,2013-04-26 18:33:00,
2013-04-26 14:38:00,69.1,31.8,29.72,WSW,246,5.8,5.8,25,0.00,CLR,,0.00,WeatherDisplay:10.37,2013-04-26 18:38:00,
2013-04-26 14:43:00,68.9,31.6,29.72,SW,234,0.0,0.0,25,0.00,CLR,,0.00,WeatherDisplay:10.37,2013-04-26 18:43:00,
2013-04-26 14:48:00,68.9,34.4,29.72,North,359,2.3,0.0,28,0.00,CLR,,0.00,WeatherDisplay:10.37,2013-04-26 18:48:00,
2013-04-26 14:53:00,68.9,34.4,29.72,WNW,284,2.3,2.3,28,0.00,CLR,,0.00,WeatherDisplay:10.37,2013-04-26 18:53:00,
2013-04-26 14:58:00,70.3,35.6,29.72,NNE,14,6.9,6.9,28,0.00,CLR,,0.00,WeatherDisplay:10.37,2013-04-26 18:58:00,
2013-04-26 15:03:00,70.3,35.6,29.72,North,4,0.0,0.0,28,0.00,CLR,,0.00,WeatherDisplay:10.37,2013-04-26 19:03:00,
2013-04-26 15:08:00,70.3,32.8,29.72,SSW,210,4.6,4.6,25,0.00,CLR,,0.00,WeatherDisplay:10.37,2013-04-26 19:08:00,
2013-04-26 15:13:00,70.3,32.8,29.71,East,100,0.0,0.0,25,0.00,CLR,,0.00,WeatherDisplay:10.37,2013-04-26 19:13:00,
2013-04-26 15:18:00,70.3,33.8,29.71,NNE,17,2.0,2.0,26,0.00,CLR,,0.00,WeatherDisplay:10.37,2013-04-26 19:18:00,
2013-04-26 15:23:00,70.8,33.2,29.71,ENE,72,4.6,4.6,25,0.00,CLR,,0.00,WeatherDisplay:10.37,2013-04-26 19:23:00,
2013-04-26 15:28:00,70.8,32.2,29.70,North,0,3.5,3.5,24,0.00,CLR,,0.00,WeatherDisplay:10.37,2013-04-26 19:28:00,
2013-04-26 15:33:00,70.1,32.6,29.70,ENE,59,3.5,3.5,25,0.00,CLR,,0.00,WeatherDisplay:10.37,2013-04-26 19:33:00,
2013-04-26 15:38:00,69.9,33.4,29.70,NNE,18,6.9,6.9,26,0.00,CLR,,0.00,WeatherDisplay:10.37,2013-04-26 19:38:00,
2013-04-26 15:43:00,70.1,32.6,29.70,North,0,4.6,4.6,25,0.00,CLR,,0.00,WeatherDisplay:10.37,2013-04-26 19:43:00,
2013-04-26 15:48:00,70.6,33.0,29.70,North,0,0.0,0.0,25,0.00,CLR,,0.00,WeatherDisplay:10.37,2013-04-26 19:48:00,
2013-04-26 15:53:00,70.9,34.3,29.70,North,7,6.9,6.9,26,0.00,CLR,,0.00,WeatherDisplay:10.37,2013-04-26 19:53:00,
2013-04-26 15:58:00,70.9,34.3,29.70,NNW,330,3.5,3.5,26,0.00,CLR,,0.00,WeatherDisplay:10.37,2013-04-26 19:58:00,
2013-04-26 16:03:00,70.8,36.1,29.70,NW,319,5.8,5.8,28,0.00,CLR,,0.00,WeatherDisplay:10.37,2013-04-26 20:03:00,
2013-04-26 16:08:00,70.4,33.9,29.70,North,0,3.5,3.5,26,0.00,CLR,,0.00,WeatherDisplay:10.37,2013-04-26 20:08:00,
2013-04-26 16:13:00,69.6,33.2,29.69,ESE,117,2.3,2.3,26,0.00,CLR,,0.00,WeatherDisplay:10.37,2013-04-26 20:13:00,
2013-04-26 16:18:00,69.6,35.0,29.69,NNE,32,1.1,1.1,28,0.00,CLR,,0.00,WeatherDisplay:10.37,2013-04-26 20:18:00,
2013-04-26 16:23:00,69.9,34.4,29.69,West,264,1.1,0.0,27,0.00,CLR,,0.00,WeatherDisplay:10.37,2013-04-26 20:23:00,
2013-04-26 16:28:00,70.3,34.7,29.68,West,264,0.0,0.0,27,0.00,CLR,,0.00,WeatherDisplay:10.37,2013-04-26 20:28:00,
2013-04-26 16:33:00,70.8,34.2,29.68,WNW,285,0.0,0.5,26,0.00,CLR,,0.00,WeatherDisplay:10.37,2013-04-26 20:33:00,
2013-04-26 16:38:00,70.9,33.3,29.68,NNE,24,1.1,1.7,25,0.00,CLR,,0.00,WeatherDisplay:10.37,2013-04-26 20:38:00,
2013-04-26 16:43:00,70.8,33.2,29.67,NNE,18,1.1,0.0,25,0.00,CLR,,0.00,WeatherDisplay:10.37,2013-04-26 20:43:00,
2013-04-26 16:48:00,70.8,33.2,29.67,NNE,17,3.5,3.5,25,0.00,CLR,,0.00,WeatherDisplay:10.37,2013-04-26 20:48:00,
2013-04-26 16:53:00,70.4,33.9,29.67,NNW,343,3.0,3.0,26,0.00,CLR,,0.00,WeatherDisplay:10.37,2013-04-26 20:53:00,
2013-04-26 16:58:00,70.3,33.8,29.68,North,357,0.0,0.0,26,0.00,CLR,,0.00,WeatherDisplay:10.37,2013-04-26 20:58:00,
2013-04-26 17:03:00,70.6,32.0,29.68,North,359,1.1,0.0,24,0.00,CLR,,0.00,WeatherDisplay:10.37,2013-04-26 21:03:00,
2013-04-26 17:08:00,70.6,33.0,29.68,North,8,0.0,0.0,25,0.00,CLR,,0.00,WeatherDisplay:10.37,2013-04-26 21:08:00,
2013-04-26 17:13:00,70.6,35.0,29.68,North,7,0.0,0.0,27,0.00,CLR,,0.00,WeatherDisplay:10.37,2013-04-26 21:13:00,
2013-04-26 17:18:00,70.6,35.0,29.68,North,8,0.0,0.0,27,0.00,CLR,,0.00,WeatherDisplay:10.37,2013-04-26 21:18:00,
2013-04-26 17:23:00,70.9,33.3,29.68,North,7,0.0,0.0,25,0.00,CLR,,0.00,WeatherDisplay:10.37,2013-04-26 21:23:00,
2013-04-26 17:28:00,70.8,32.2,29.67,WSW,256,1.1,1.1,24,0.00,CLR,,0.00,WeatherDisplay:10.37,2013-04-26 21:28:00,
2013-04-26 17:33:00,70.4,31.9,29.67,WSW,257,0.0,0.0,24,0.00,CLR,,0.00,WeatherDisplay:10.37,2013-04-26 21:33:00,
2013-04-26 17:38:00,70.3,31.8,29.67,WSW,257,0.0,0.0,24,0.00,CLR,,0.00,WeatherDisplay:10.37,2013-04-26 21:38:00,
2013-04-26 17:43:00,70.3,32.8,29.67,WSW,258,0.0,0.0,25,0.00,CLR,,0.00,WeatherDisplay:10.37,2013-04-26 21:43:00,
2013-04-26 17:48:00,70.3,32.8,29.67,WSW,254,2.3,2.3,25,0.00,CLR,,0.00,WeatherDisplay:10.37,2013-04-26 21:48:00,
2013-04-26 17:53:00,69.9,32.5,29.67,WSW,244,3.5,3.5,25,0.00,CLR,,0.00,WeatherDisplay:10.37,2013-04-26 21:53:00,
2013-04-26 17:58:00,69.6,34.1,29.67,WSW,244,2.3,0.0,27,0.00,CLR,,0.00,WeatherDisplay:10.37,2013-04-26 21:58:00,
2013-04-26 18:03:00,69.6,34.1,29.67,WSW,244,1.1,0.0,27,0.00,CLR,,0.00,WeatherDisplay:10.37,2013-04-26 22:03:00,
2013-04-26 18:08:00,69.6,34.1,29.67,WSW,244,0.0,0.0,27,0.00,CLR,,0.00,WeatherDisplay:10.37,2013-04-26 22:08:00,
2013-04-26 18:13:00,69.4,36.6,29.66,WSW,244,0.0,0.0,30,0.00,CLR,,0.00,WeatherDisplay:10.37,2013-04-26 22:13:00,
2013-04-26 18:18:00,69.1,34.6,29.66,WSW,244,0.0,0.0,28,0.00,CLR,,0.00,WeatherDisplay:10.37,2013-04-26 22:18:00,
2013-04-26 18:23:00,68.8,33.4,29.66,WSW,244,0.0,0.0,27,0.00,CLR,,0.00,WeatherDisplay:10.37,2013-04-26 22:23:00,
2013-04-26 18:28:00,68.6,34.2,29.67,WSW,244,0.0,0.0,28,0.00,CLR,,0.00,WeatherDisplay:10.37,2013-04-26 22:28:00,
2013-04-26 18:33:00,68.6,35.9,29.67,WSW,244,0.0,0.0,30,0.00,CLR,,0.00,WeatherDisplay:10.37,2013-04-26 22:33:00,
2013-04-26 18:38:00,68.4,34.9,29.67,WSW,244,0.0,0.0,29,0.00,CLR,,0.00,WeatherDisplay:10.37,2013-04-26 22:38:00,
2013-04-26 18:43:00,68.4,34.9,29.67,WSW,244,0.0,0.0,29,0.00,CLR,,0.00,WeatherDisplay:10.37,2013-04-26 22:43:00,
2013-04-26 18:48:00,68.1,37.1,29.67,WSW,244,0.0,0.0,32,0.00,CLR,,0.00,WeatherDisplay:10.37,2013-04-26 22:48:00,
2013-04-26 18:53:00,67.8,37.6,29.67,WSW,244,0.0,0.0,33,0.00,CLR,,0.00,WeatherDisplay:10.37,2013-04-26 22:53:00,
2013-04-26 18:58:00,67.4,38.8,29.67,WSW,244,0.0,0.0,35,0.00,CLR,,0.00,WeatherDisplay:10.37,2013-04-26 22:58:00,
2013-04-26 19:03:00,66.9,40.5,29.67,WSW,244,0.0,0.0,38,0.00,CLR,,0.00,WeatherDisplay:10.37,2013-04-26 23:03:00,
2013-04-26 19:08:00,66.6,41.5,29.67,WSW,244,0.0,0.0,40,0.00,CLR,,0.00,WeatherDisplay:10.37,2013-04-26 23:08:00,
2013-04-26 19:13:00,66.1,41.1,29.67,WSW,244,0.0,0.0,40,0.00,CLR,,0.00,WeatherDisplay:10.37,2013-04-26 23:13:00,
2013-04-26 19:18:00,65.6,41.3,29.67,WSW,244,0.0,0.0,41,0.00,CLR,,0.00,WeatherDisplay:10.37,2013-04-26 23:18:00,
2013-04-26 19:23:00,65.2,41.5,29.67,WSW,244,0.0,0.0,42,0.00,CLR,,0.00,WeatherDisplay:10.37,2013-04-26 23:23:00,
2013-04-26 19:28:00,64.8,41.8,29.68,WSW,244,0.0,0.0,43,0.00,CLR,,0.00,WeatherDisplay:10.37,2013-04-26 23:28:00,
2013-04-26 19:33:00,64.3,40.1,29.68,WSW,244,0.0,0.0,41,0.00,CLR,,0.00,WeatherDisplay:10.37,2013-04-26 23:33:00,
2013-04-26 19:38:00,64.0,41.0,29.68,WSW,244,0.0,0.0,43,0.00,CLR,,0.00,WeatherDisplay:10.37,2013-04-26 23:38:00,
2013-04-26 19:43:00,63.7,40.8,29.69,WSW,244,0.0,0.0,43,0.00,CLR,,0.00,WeatherDisplay:10.37,2013-04-26 23:43:00,
2013-04-26 19:48:00,63.4,40.5,29.69,WSW,244,0.0,0.0,43,0.00,CLR,,0.00,WeatherDisplay:10.37,2013-04-26 23:48:00,
2013-04-26 19:53:00,63.1,40.2,29.69,WSW,244,0.0,0.0,43,0.00,CLR,,0.00,WeatherDisplay:10.37,2013-04-26 23:53:00,
2013-04-26 20:05:00,62.4,40.2,29.69,WSW,244,0.0,0.0,44,0.00,CLR,,0.00,WeatherDisplay:10.37,2013-04-27 00:05:00,
2013-04-26 20:10:00,62.3,41.2,29.69,WSW,244,0.0,0.0,46,0.00,CLR,,0.00,WeatherDisplay:10.37,2013-04-27 00:10:00,
2013-04-26 20:15:00,62.0,40.4,29.69,WSW,244,0.0,0.0,45,0.00,CLR,,0.00,WeatherDisplay:10.37,2013-04-27 00:15:00,
2013-04-26 20:20:00,61.8,39.1,29.69,WSW,244,0.0,0.0,43,0.00,CLR,,0.00,WeatherDisplay:10.37,2013-04-27 00:20:00,
2013-04-26 20:25:00,61.5,36.9,29.69,WSW,244,0.0,0.0,40,0.00,CLR,,0.00,WeatherDisplay:10.37,2013-04-27 00:25:00,
2013-04-26 20:30:00,61.5,35.6,29.69,WSW,244,0.0,0.4,38,0.00,CLR,,0.00,WeatherDisplay:10.37,2013-04-27 00:30:00,
2013-04-26 20:35:00,61.6,36.4,29.69,WSW,244,0.0,0.0,39,0.00,CLR,,0.00,WeatherDisplay:10.37,2013-04-27 00:35:00,
2013-04-26 20:40:00,61.8,36.6,29.70,WSW,244,0.0,0.0,39,0.00,CLR,,0.00,WeatherDisplay:10.37,2013-04-27 00:40:00,
2013-04-26 20:45:00,61.8,37.8,29.70,WSW,244,0.0,0.0,41,0.00,CLR,,0.00,WeatherDisplay:10.37,2013-04-27 00:45:00,
2013-04-26 20:50:00,61.8,37.8,29.70,WSW,244,0.0,0.0,41,0.00,CLR,,0.00,WeatherDisplay:10.37,2013-04-27 00:50:00,
2013-04-26 20:55:00,61.8,40.2,29.70,WSW,244,0.0,0.0,45,0.00,CLR,,0.00,WeatherDisplay:10.37,2013-04-27 00:55:00,
2013-04-26 21:00:00,61.6,38.3,29.70,WSW,244,0.0,0.0,42,0.00,CLR,,0.00,WeatherDisplay:10.37,2013-04-27 01:00:00,
2013-04-26 21:05:00,61.3,39.2,29.70,WSW,244,0.0,0.0,44,0.00,CLR,,0.00,WeatherDisplay:10.37,2013-04-27 01:05:00,
2013-04-26 21:10:00,61.2,38.5,29.70,WSW,244,0.0,0.0,43,0.00,CLR,,0.00,WeatherDisplay:10.37,2013-04-27 01:10:00,
2013-04-26 21:15:00,60.9,38.2,29.70,WSW,244,0.0,0.0,43,0.00,CLR,,0.00,WeatherDisplay:10.37,2013-04-27 01:15:00,
2013-04-26 21:20:00,60.7,38.1,29.70,WSW,244,0.0,0.0,43,0.00,CLR,,0.00,WeatherDisplay:10.37,2013-04-27 01:20:00,
2013-04-26 21:25:00,60.5,37.9,29.71,WSW,244,0.0,0.0,43,0.00,CLR,,0.00,WeatherDisplay:10.37,2013-04-27 01:25:00,
2013-04-26 21:30:00,60.4,40.1,29.71,WSW,244,0.0,0.0,47,0.00,CLR,,0.00,WeatherDisplay:10.37,2013-04-27 01:30:00,
2013-04-26 21:35:00,60.1,38.1,29.71,WSW,244,0.0,0.0,44,0.00,CLR,,0.00,WeatherDisplay:10.37,2013-04-27 01:35:00,
2013-04-26 21:40:00,59.9,37.9,29.72,WSW,244,0.0,0.0,44,0.00,CLR,,0.00,WeatherDisplay:10.37,2013-04-27 01:40:00,
2013-04-26 21:45:00,59.8,37.8,29.72,WSW,244,0.0,0.0,44,0.00,CLR,,0.00,WeatherDisplay:10.37,2013-04-27 01:45:00,
2013-04-26 21:50:00,59.6,37.1,29.72,WSW,244,0.0,0.0,43,0.00,CLR,,0.00,WeatherDisplay:10.37,2013-04-27 01:50:00,
2013-04-26 21:55:00,59.5,37.6,29.72,WSW,244,0.0,0.0,44,0.00,CLR,,0.00,WeatherDisplay:10.37,2013-04-27 01:55:00,
2013-04-26 22:00:00,59.3,39.1,29.72,WSW,244,0.0,0.0,47,0.00,CLR,,0.00,WeatherDisplay:10.37,2013-04-27 02:00:00,
2013-04-26 22:05:00,58.7,41.1,29.72,WSW,244,0.0,0.0,52,0.00,CLR,,0.00,WeatherDisplay:10.37,2013-04-27 02:05:00,
2013-04-26 22:10:00,58.0,41.0,29.72,WSW,244,0.0,0.0,53,0.00,CLR,,0.00,WeatherDisplay:10.37,2013-04-27 02:10:00,
2013-04-26 22:16:00,57.2,40.2,29.72,WSW,244,0.0,0.0,53,0.00,CLR,,0.00,WeatherDisplay:10.37,2013-04-27 02:16:00,
2013-04-26 22:21:00,56.7,39.7,29.72,WSW,244,0.0,0.0,53,0.00,CLR,,0.00,WeatherDisplay:10.37,2013-04-27 02:21:00,
2013-04-26 22:26:00,56.3,40.3,29.72,WSW,244,0.0,0.0,55,0.00,CLR,,0.00,WeatherDisplay:10.37,2013-04-27 02:26:00,
2013-04-26 22:31:00,56.0,39.1,29.72,WSW,244,0.0,0.0,53,0.00,CLR,,0.00,WeatherDisplay:10.37,2013-04-27 02:31:00,
2013-04-26 22:36:00,55.9,39.0,29.72,WSW,244,0.0,0.0,53,0.00,CLR,,0.00,WeatherDisplay:10.37,2013-04-27 02:36:00,
2013-04-26 22:41:00,55.9,40.4,29.72,WSW,244,0.0,0.0,56,0.00,CLR,,0.00,WeatherDisplay:10.37,2013-04-27 02:41:00,
2013-04-26 22:46:00,55.7,40.7,29.72,WSW,244,0.0,0.0,57,0.00,CLR,,0.00,WeatherDisplay:10.37,2013-04-27 02:46:00,
2013-04-26 22:51:00,55.4,40.0,29.72,WSW,244,0.0,0.0,56,0.00,CLR,,0.00,WeatherDisplay:10.37,2013-04-27 02:51:00,
2013-04-26 22:56:00,55.4,40.9,29.72,WSW,244,0.0,0.0,58,0.00,CLR,,0.00,WeatherDisplay:10.37,2013-04-27 02:56:00,
2013-04-26 23:01:00,55.3,39.4,29.72,WSW,244,0.0,0.0,55,0.00,CLR,,0.00,WeatherDisplay:10.37,2013-04-27 03:01:00,
2013-04-26 23:06:00,55.1,37.8,29.72,WSW,244,0.0,0.0,52,0.00,CLR,,0.00,WeatherDisplay:10.37,2013-04-27 03:06:00,
2013-04-26 23:11:00,55.3,38.4,29.71,WSW,244,0.0,0.0,53,0.00,CLR,,0.00,WeatherDisplay:10.37,2013-04-27 03:11:00,
2013-04-26 23:16:00,55.3,40.3,29.71,WSW,244,0.0,0.0,57,0.00,CLR,,0.00,WeatherDisplay:10.37,2013-04-27 03:16:00,
2013-04-26 23:21:00,55.1,41.5,29.71,WSW,244,0.0,0.0,60,0.00,CLR,,0.00,WeatherDisplay:10.37,2013-04-27 03:21:00,
2013-04-26 23:26:00,55.0,39.6,29.70,WSW,244,0.0,0.0,56,0.00,CLR,,0.00,WeatherDisplay:10.37,2013-04-27 03:26:00,
2013-04-26 23:31:00,55.1,41.5,29.70,WSW,244,0.0,0.0,60,0.00,CLR,,0.00,WeatherDisplay:10.37,2013-04-27 03:31:00,
2013-04-26 23:36:00,54.8,40.7,29.70,WSW,244,0.0,0.0,59,0.00,CLR,,0.00,WeatherDisplay:10.37,2013-04-27 03:36:00,
2013-04-26 23:41:00,54.7,39.8,29.70,WSW,244,0.0,0.0,57,0.00,CLR,,0.00,WeatherDisplay:10.37,2013-04-27 03:41:00,
2013-04-26 23:46:00,55.1,39.2,29.70,SSE,148,1.1,0.0,55,0.00,CLR,,0.00,WeatherDisplay:10.37,2013-04-27 03:46:00,
2013-04-26 23:51:00,56.0,38.6,29.70,ESE,103,2.3,2.3,52,0.00,CLR,,0.00,WeatherDisplay:10.37,2013-04-27 03:51:00,
2013-04-26 23:56:00,56.2,39.8,29.70,ESE,113,0.0,0.0,54,0.00,CLR,,0.00,WeatherDisplay:10.37,2013-04-27 03:56:00,